Weather in Izdeshkovo

Russia / Smolensk Oblast     55°08′36″N   33°37′21″E
temp.,
°C
wind,
m/s
gust,
m/s
humid.,
%
clouds,
%
prec.,
mm/h
press.,
hPa
HPBL,
m
7 august, sun
sun700:00+18ssw11917 1.6 101716
03:00+17s3596100 3.5 1016100
06:00+18sw0097100 1.8 101728
09:00+17nw2599100 6.7 1018297
12:00+16nnw3598100 3.7 1019278
15:00+16nnw3597100 8.7 1019427
18:00+15n3694100 1.3 1020411
21:00+14n379740 1.3 1021263
8 august, mon
mon800:00+12nne389820 0.0 1021210
03:00+11n37972 0.0 1022165
06:00+10nne38960 0.0 1023176
09:00+15nne467726 0.0 1023456
12:00+20nne345864 0.0 10221109
15:00+21ne325483 0.0 10211549
18:00+21ene335817 0.0 10211335
21:00+15nne128250 0.0 102211
9 august, tue
tue900:00+13n228298 0.0 102223
03:00+12n2378100 0.0 102238
06:00+12n2478100 0.0 102284
09:00+17n356299 0.0 1022291
12:00+21nne45455 0.0 10221793
15:00+22n4545100 0.0 10221881
18:00+19n366197 0.0 1022310
21:00+15n367711 0.0 1022111
10 august, wed
wed1000:00+15n387157 0.0 1023227
03:00+11n36915 0.0 102396
06:00+11n38930 0.0 1023176
09:00+16n58650 0.0 1023666
12:00+20n57484 0.0 10231745
15:00+21n56416 0.0 10222226
18:00+21n46484 0.0 10231276
21:00+14nne23750 0.0 102430
11 august, thu
thu1100:00+11nnw22855 0.0 102515
03:00+10n22815 0.0 102525
06:00+10n23805 0.0 102648
09:00+17nne35590 0.0 1026367
12:00+21nne33420 0.0 10261699
15:00+23nne22395 0.0 10251918
18:00+22ene01440 0.0 10241437
21:00+16wnw1265100 0.0 102511